Theta_e
304 299 296 299 301 301 300 298 296 299 303 301 300 300 302 305 305 305 308 309 311 312 316 318 321 323 326 330 332 337 338 336 340 336 335 338 341 349 349 352 353 352 350 348
300 296 301 302 301 299 299 296 295 298 301 300 299 298 302 304 304 306 307 308 310 312 313 316 318 321 325 328 330 333 333 335 337 331 335 341 336 339 341 348 352 352 352 349
297 300 303 301 299 297 297 295 295 295 299 300 298 296 299 302 305 306 308 309 310 311 311 315 316 319 323 325 327 328 331 328 332 336 329 329 331 332 334 333 335 349 354 347
299 303 301 299 296 298 293 299 298 296 295 290 298 288 296 300 302 305 306 307 309 310 312 315 316 318 322 322 324 327 330 330 325 336 331 330 326 325 328 330 333 339 352 352
297 299 298 297 297 299 295 300 297 296 294 293 293 290 294 300 298 302 306 307 308 310 311 312 313 316 318 321 323 326 328 330 333 331 330 331 331 331 329 330 331 335 343 347
300 304 301 300 301 301 301 297 297 296 294 287 291 291 292 296 299 302 305 306 308 308 310 312 315 317 318 319 320 325 328 331 333 332 330 326 332 331 329 327 332 332 332 337
299 300 303 303 298 301 299 294 287 285 286 285 294 291 294 300 301 303 304 305 306 307 308 310 312 315 317 317 320 323 324 327 331 331 332 329 329 331 330 331 330 327 327 334
292 290 299 303 299 296 296 295 288 280 283 286 294 287 292 301 304 305 305 307 306 306 308 310 312 315 315 318 320 321 323 326 328 329 329 332 330 328 327 328 329 329 327 328
292 292 302 302 303 301 297 293 297 290 291 286 290 294 299 302 303 303 303 304 305 306 310 309 311 313 316 317 322 323 323 324 327 325 326 330 330 331 327 328 331 331 333 332
297 290 298 300 302 302 298 300 290 292 282 281 287 289 290 296 299 301 301 303 305 308 308 308 311 314 315 316 320 324 324 322 322 325 326 322 325 329 328 329 328 329 330 332
299 295 294 298 296 294 295 294 294 293 291 284 282 286 298 298 300 301 303 303 305 306 307 308 310 313 313 315 314 320 321 321 321 323 325 326 323 323 325 326 327 330 331 331
300 296 290 293 299 300 298 294 294 288 286 289 288 288 300 301 302 303 303 304 306 308 308 309 310 312 312 313 314 316 322 319 320 322 321 321 326 325 325 325 327 330 331 333
300 294 287 289 294 298 293 294 294 293 293 288 286 288 300 303 301 301 302 303 306 308 308 309 310 311 312 312 314 314 317 317 318 318 318 321 322 322 322 325 326 327 328 330
301 294 290 285 288 293 290 293 294 291 286 289 289 291 296 299 300 301 302 303 304 308 309 309 310 310 313 314 314 314 315 317 317 316 317 320 322 321 319 323 326 326 327 326
297 290 292 292 293 292 291 291 292 290 290 287 290 290 295 299 301 303 302 303 305 305 307 309 309 312 314 314 316 315 316 316 317 316 314 318 320 320 319 319 320 323 324 325
297 289 292 289 292 291 289 291 291 291 292 293 292 292 299 301 303 302 303 304 305 306 307 309 310 311 312 314 314 315 317 317 318 316 315 316 316 315 316 318 317 318 318 324
292 290 288 284 289 289 284 290 292 293 295 294 290 295 301 299 301 302 303 305 305 306 307 308 309 311 314 314 316 315 317 317 316 316 315 315 315 313 314 314 314 315 316 319
291 290 289 285 287 279 290 297 297 295 296 297 296 299 299 300 303 304 306 305 306 306 307 308 310 312 314 315 315 315 315 316 316 315 315 314 313 311 311 312 312 313 313 314
297 293 288 284 284 288 290 294 294 292 290 298 298 298 300 301 302 302 306 307 306 307 308 309 311 311 312 312 312 313 313 313 313 313 313 313 313 310 309 310 310 312 312 311
297 295 290 288 281 279 292 296 300 299 289 299 300 299 299 300 293 297 306 306 307 308 309 308 309 311 310 312 314 312 310 310 312 311 311 312 312 311 310 310 310 310 310 311
290 289 284 286 284 288 297 300 302 287 290 300 300 300 299 296 299 304 306 306 307 306 307 308 308 308 309 310 310 307 307 306 310 312 311 311 311 311 310 309 310 309 309 310
289 288 287 287 285 283 299 298 291 296 300 300 300 300 298 301 303 304 305 305 306 305 306 306 305 306 307 308 307 305 304 307 309 308 308 307 307 308 308 307 307 306 309 311
289 294 290 291 291 301 302 299 302 301 299 299 299 299 300 299 298 302 302 303 303 304 302 304 304 305 306 306 305 303 304 307 307 306 305 306 306 305 306 306 305 306 311 313
295 298 293 293 296 297 297 299 299 299 297 297 298 299 299 297 298 298 300 300 301 302 301 302 302 301 302 304 304 305 306 306 306 306 306 308 312 307 305 307 308 309 316 318
296 297 293 292 295 294 295 295 296 296 297 297 296 294 294 294 295 296 297 298 299 299 299 301 300 299 300 301 302 305 306 307 306 309 312 314 309 307 305 306 309 317 324 326
295 292 288 287 292 291 290 293 296 295 295 296 294 294 294 294 293 294 295 296 297 297 298 297 297 297 299 302 304 305 307 308 310 312 320 320 315 314 312 315 314 297 310 307
Wind_Speed
14 12 13 16 17 18 16 17 17 21 21 17 16 17 14 14 18 20 15 17 17 15 14 13 6 8 7 6 4 4 6 3 4 7 5 2 3 3 3 4 7 6 5 6
14 14 15 16 16 18 14 17 19 20 20 18 20 22 18 19 20 20 20 18 13 14 15 14 14 12 8 6 5 1 3 6 3 4 3 2 1 2 3 1 3 8 8 7
16 16 17 9 15 16 15 17 19 21 20 22 21 20 19 25 26 26 23 19 16 14 15 15 19 15 11 8 4 4 1 3 2 3 2 3 1 1 3 2 3 5 5 9
16 16 16 16 12 14 17 16 17 17 18 15 16 17 20 21 22 18 12 13 15 12 8 7 14 15 11 5 7 3 2 3 3 3 3 6 4 3 2 4 4 6 8 8
17 16 17 17 15 16 19 16 16 20 20 21 21 15 18 21 22 21 18 18 9 6 7 10 6 4 7 5 2 6 4 2 1 4 2 2 3 3 3 4 6 5 6 6
22 21 23 22 20 16 18 16 17 18 18 17 24 22 21 18 20 17 14 14 12 7 10 11 11 10 5 7 10 6 4 4 4 5 3 6 5 4 3 3 4 3 4 9
22 24 25 23 25 22 21 17 14 17 14 15 22 14 11 15 2 12 14 11 11 9 9 8 9 13 12 13 8 5 7 7 7 6 6 6 6 6 7 4 5 7 4 7
20 20 20 17 16 19 21 18 11 16 15 17 22 7 12 12 17 10 5 14 6 5 8 10 11 11 11 7 10 9 5 6 6 6 6 6 7 5 4 6 6 6 7 8
19 26 22 19 17 14 17 19 18 18 13 12 17 27 22 20 22 11 8 7 8 6 7 7 5 1 6 8 8 8 8 6 4 6 8 6 6 6 6 8 6 6 8 9
16 22 20 21 21 17 16 16 15 9 7 18 16 19 11 18 10 11 8 9 7 7 9 8 8 10 7 7 8 9 10 11 10 10 7 7 8 8 7 8 10 10 10 8
16 17 17 21 19 21 13 18 18 16 13 16 17 15 4 3 2 12 11 10 10 9 11 9 10 10 11 7 12 9 12 13 12 7 7 7 8 10 10 8 8 9 9 10
17 13 16 18 23 21 19 18 17 16 12 12 12 17 10 7 6 12 16 8 11 12 14 13 11 9 9 9 13 9 7 8 7 5 6 7 5 7 9 10 11 11 11 10
8 7 11 13 18 15 7 18 20 15 12 18 14 17 12 9 3 10 21 22 20 11 10 10 10 10 11 12 11 10 9 10 10 10 10 7 6 6 12 10 11 12 12 12
4 13 18 16 22 21 11 19 12 11 9 14 17 23 17 13 16 16 21 14 22 17 12 13 10 11 9 10 10 10 10 7 4 11 11 6 5 6 9 11 10 12 14 15
2 14 19 19 22 24 24 25 21 18 18 19 24 25 22 18 19 15 19 21 29 18 15 12 8 8 7 9 11 12 12 10 10 6 5 9 6 6 10 13 12 13 14 15
11 5 16 20 19 25 28 26 27 27 23 28 25 26 21 22 20 21 20 20 14 13 13 15 12 12 11 13 14 8 8 8 8 11 11 9 9 7 9 9 12 13 16 18
16 14 16 19 19 20 14 18 28 20 20 22 15 20 21 21 20 19 18 16 17 12 14 14 14 14 11 11 10 11 13 12 14 14 13 13 13 12 10 11 14 16 17 17
13 14 11 14 15 19 19 5 8 11 11 16 16 15 8 13 14 15 14 14 16 15 13 14 14 13 12 14 12 12 14 16 16 15 15 15 13 11 13 14 15 16 16 16
9 11 5 6 10 19 21 9 9 7 14 14 8 12 15 19 19 17 16 11 18 19 18 17 15 16 18 17 17 16 16 17 19 18 19 19 19 15 13 15 17 16 15 17
6 5 3 8 5 7 8 4 11 10 12 16 18 15 17 19 15 14 21 23 22 21 17 17 19 20 21 19 13 16 19 21 20 19 20 19 18 18 18 18 19 16 18 20
3 3 5 9 8 9 14 16 18 11 10 22 21 21 18 15 12 19 22 20 19 19 22 22 22 21 20 17 16 20 19 19 19 11 10 9 12 16 17 20 19 17 18 20
2 4 2 3 5 6 8 7 8 12 18 22 19 19 21 23 25 24 22 23 22 22 23 23 22 21 19 20 18 21 22 20 15 17 19 22 23 20 19 25 20 21 20 21
4 1 3 5 6 15 17 16 14 19 20 19 23 24 23 25 25 25 25 22 19 21 21 24 22 21 19 19 18 22 23 20 19 23 30 31 33 30 26 23 21 19 20 18
9 9 6 9 8 19 21 18 21 22 24 26 26 26 24 25 24 23 24 24 23 21 20 20 21 22 20 17 18 19 18 19 21 28 35 33 28 30 28 18 15 14 15 16
5 10 11 15 12 24 10 18 22 25 25 26 16 23 25 24 25 25 21 23 20 19 17 17 16 17 20 20 21 18 19 19 23 24 24 6 10 19 20 17 15 15 19 16
6 6 3 4 16 12 19 22 28 25 23 20 25 25 22 23 23 22 20 17 18 18 17 18 20 19 20 20 21 19 20 14 19 18 6 4 8 10 11 10 5 12 11 17
Wind_Direction
257 241 243 254 258 260 287 296 298 294 300 308 298 279 274 284 285 281 260 211 218 232 243 170 160 133 127 97 43 223 150 187 178 197 168 161 159 186 219 198 216 254 212 226
237 250 258 259 269 285 296 284 280 283 280 279 278 273 277 276 271 268 268 267 244 224 226 182 172 159 157 153 154 47 187 140 251 223 139 131 245 215 185 77 204 232 196 196
262 275 293 280 287 285 261 263 272 278 286 288 290 284 279 265 252 249 247 250 252 245 236 206 176 164 159 156 182 193 125 18 180 306 165 103 327 295 332 239 241 238 202 190
270 283 276 292 261 270 271 276 286 294 289 280 286 283 282 287 291 274 231 235 233 230 238 266 170 151 149 177 157 259 229 136 326 313 281 136 199 190 186 260 235 240 231 223
266 265 277 256 247 271 281 292 296 296 288 288 269 266 277 267 258 246 237 204 203 230 201 132 140 183 172 170 263 182 236 299 281 295 321 270 185 235 187 231 251 257 288 261
276 278 279 272 275 259 256 290 277 273 273 260 263 256 261 258 268 258 214 160 169 179 189 185 190 172 158 227 208 203 194 210 227 263 261 299 272 240 235 231 286 273 250 256
261 256 242 242 255 247 253 247 264 257 248 252 259 284 320 302 242 319 133 146 168 189 205 200 182 171 189 209 193 215 208 232 196 194 225 231 266 267 276 252 238 250 219 263
271 272 274 294 273 257 258 247 254 271 279 281 287 218 266 309 316 237 182 176 168 186 251 214 201 192 209 209 181 199 223 246 236 240 213 200 211 231 254 257 252 255 265 252
295 288 295 264 280 268 251 240 260 283 311 288 278 276 276 232 230 241 228 184 241 209 234 255 190 263 248 250 206 187 191 228 242 245 270 268 233 224 220 228 247 257 237 236
284 293 292 297 294 262 276 292 274 257 263 269 268 283 299 343 166 232 226 239 227 195 218 240 231 223 230 247 257 196 198 203 214 228 219 252 275 255 239 235 235 240 252 263
276 275 279 285 272 271 253 236 269 263 241 252 266 269 151 262 173 214 258 202 216 222 229 249 242 234 243 262 247 222 205 213 207 203 217 234 243 269 283 272 267 258 250 256
297 305 288 264 288 293 271 273 256 258 248 232 285 278 133 243 46 315 292 253 243 232 237 245 260 269 278 263 259 246 222 228 216 219 234 239 283 294 261 266 271 273 263 252
310 232 283 293 290 265 8 321 310 323 324 267 261 263 257 181 211 314 296 317 335 266 246 262 271 276 255 252 255 256 240 233 225 220 223 203 212 260 264 252 266 276 276 275
336 283 269 270 278 293 300 278 260 243 289 295 268 281 288 280 208 199 240 285 287 269 262 260 257 262 262 261 267 269 267 263 250 225 256 221 220 239 279 289 273 253 261 262
289 265 261 272 298 298 289 288 277 230 236 249 269 271 277 279 287 263 220 226 257 265 267 275 280 278 280 282 280 262 259 256 254 244 191 248 230 247 242 259 265 281 265 261
168 227 267 274 276 272 279 289 274 271 250 238 265 274 278 271 266 267 276 284 306 331 287 264 253 259 260 242 248 245 264 297 274 254 254 257 253 254 266 270 278 277 278 273
289 291 291 288 291 300 291 271 276 284 306 287 296 336 349 347 313 330 353 338 314 284 283 309 312 317 328 319 319 324 305 276 264 252 248 247 243 238 252 268 276 268 266 271
258 266 278 284 291 273 277 313 330 296 303 356 328 331 320 274 294 308 313 283 260 304 324 319 312 305 290 281 286 281 278 274 266 257 253 252 248 240 247 254 251 260 267 267
258 257 297 262 267 279 287 17 354 21 305 325 343 345 333 320 317 294 274 304 333 326 321 319 313 303 293 281 277 271 266 263 258 246 245 244 242 233 235 250 250 248 258 266
73 38 217 258 273 285 41 118 260 248 258 2 347 330 312 324 307 304 335 325 319 312 303 300 294 290 285 280 278 270 266 261 251 249 247 242 234 236 239 243 246 250 255 256
200 187 218 244 243 273 29 351 331 279 330 330 329 317 321 312 297 305 307 306 302 305 300 296 290 287 293 292 286 284 286 285 285 272 269 265 236 228 235 244 239 240 246 250
174 293 252 220 247 269 22 352 7 313 327 329 317 318 316 316 313 306 303 301 303 301 300 300 299 298 300 295 291 288 284 284 276 273 263 250 244 241 244 234 231 240 239 237
16 25 269 288 313 316 5 353 345 338 320 321 319 315 312 308 300 302 304 296 300 306 308 300 296 291 289 296 296 290 285 286 290 289 272 256 241 224 218 221 226 226 225 223
323 337 305 323 330 333 340 341 340 334 322 316 311 314 320 313 311 303 306 306 300 297 297 302 298 291 292 289 289 288 302 296 284 274 277 277 263 204 193 199 209 224 214 211
354 309 341 300 315 335 316 331 323 316 309 306 317 311 300 294 295 298 297 295 300 302 300 295 303 304 299 298 292 290 284 280 279 279 288 350 70 127 165 191 206 213 214 204
11 18 330 283 315 302 298 308 307 308 312 319 313 310 308 306 304 297 294 299 300 299 302 297 290 289 289 289 286 290 272 260 271 289 292 128 106 124 156 174 151 24 215 174